FENGYUN 1C DEB

Satellite information

Favourite Embed

Satellite Type and Status

DEBRISIN ORBIT

Key statistics

Satellite FENGYUN 1C DEB at a glance.

Uptime

9496

Days in orbit

Revolutions

≈ 14.2

Per day

Orbit

SSO

Sun Synchronous Orbit

Inclination

98.8

Latest

Satellite identification and parameters

Extended collection of information and parameters for FENGYUN 1C DEB.

Object identification

Identified? True

Debris? True

Object name: FENGYUN 1C DEB

International designator: 1999-025ASV

Object number (NORAD): 30735

Object ID (CCSDS): 30735

Country: PEOPLES REPUBLIC OF CHINA (PRC)

Current information (Y/N): Y

RCS size: SMALL

Orbital parameters

Period: 101.24 minutes

Inclination: 98.7735 deg

SMA: 7195.487 km

Apoapsis: 862.569 km

Periapsis: 772.135 km

RAAN: 199.6333 deg

Eccentricy: 0.0062841

Argument of periapsis: 158.103 deg

Mean anomaly: 326.9835 deg

Mean motion: 14.22369646 rev/day

Mean motion (dot): 0.00004249 rev/day2

B* drag term: 0.00189 1/REarth

Two-line elements (TLE)

Creation date: May 8, 2025, 3:01 a.m.

Reference frame: TEME

Reference center: EARTH

Epoch: May 7, 2025, 5:23 p.m. UTC

TLE line 0: 0 FENGYUN 1C DEB

TLE line 1: 1 30735U 99025ASV 25127.72464021 .00004249 00000-0 18900-2 0 9995

TLE line 2: 2 30735 98.7735 199.6333 0062841 158.1030 326.9835 14.22369646936335

Live tracking on map

Real-time ground track for satellite FENGYUN 1C DEB.

In-orbit conjunctions

A list of the most updated potential collisions computed for object FENGYUN 1C DEB.

Target Orbit TCA Probability of collision Miss distance Type
ARIANE 40 R/B SSO 2025-03-27 05:47:16 0.0001009475 829.0 (m) ROCKET BODY
CZ-4 DEB SSO 2025-03-05 19:31:10 0.0001139455 101.0 (m) DEBRIS
COSMOS 2251 DEB LEO 2025-01-31 22:02:09 0.0001890015 103.0 (m) DEBRIS
CZ-6A DEB LEO 2024-11-10 23:47:29 0.0002172865 809.0 (m) DEBRIS
METEOR 1-19 LEO 2024-07-26 00:04:26 0.000122134 302.0 (m) PAYLOAD

Associated space launch

Chinese polar orbiting meteorological satellite

FENGYUN 1C DEB was lifted into orbit during the mission ‘Long March 4B | Feng Yun 1C’, on board a Long March 4B space rocket.

The launch took place on May 10, 1999, 1:33 a.m. from Launch Complex 7.

For more information about the launch, click the button.

Launch to space Long March 4B | Feng Yun 1C
Long March 4B | Feng Yun 1C

Agency: N/A

Status: Launch Successful

Launch date: May 10, 1999, 1:33 a.m. UTC

Rocket: Long March 4B

Launch pad: Launch Complex 7

Location: Taiyuan Satellite Launch Center, People's Republic of China

...

Latest news about this satellite

There are no fresh news available about this satellite. Check back as we update our databases every day.


Newsletter sign-up

Weekly statistics, charts and insights to help you stay on top of the space industry.